Theta_e
348 348 348 347 346 346 349 350 350 351 351 351 350 351 351 351 351 349 349 349 347 346 345 346 347 347 349 346 346 346 346 346 345 346 346 346 346 346 345 345 345 344 344 345 343 342 342 341 341 340 340 338 336 329 329 330 331 334 334 335 336 332
346 347 347 346 345 345 347 348 346 347 348 348 350 350 349 348 348 346 349 348 345 346 342 343 345 348 346 347 346 346 346 345 345 345 346 346 346 346 345 345 344 343 343 343 342 340 341 341 341 340 339 336 330 329 330 331 331 332 332 332 334 336
346 346 345 344 343 344 344 344 344 344 346 348 348 347 344 346 343 344 344 344 344 342 342 343 345 346 346 346 346 345 345 345 345 345 344 345 345 345 345 345 343 341 340 339 336 336 337 338 338 339 336 330 330 330 330 330 330 330 330 334 332 336
345 345 344 342 342 342 342 342 343 343 343 343 343 344 342 342 342 342 343 342 341 342 342 342 348 348 347 344 344 346 345 345 345 344 344 342 344 345 345 343 342 339 336 335 333 335 335 334 332 330 329 330 330 329 329 330 330 330 332 336 332 337
345 344 344 343 343 343 344 344 344 343 342 341 341 340 340 339 340 342 343 341 340 342 341 342 343 343 342 341 340 341 340 337 336 334 338 330 330 332 331 330 331 332 331 332 332 332 331 330 330 329 329 330 330 329 330 331 331 331 331 333 336 338
344 344 343 343 344 345 345 344 344 343 342 342 342 340 338 339 340 342 342 341 341 340 340 340 341 341 341 339 339 337 335 334 332 331 332 329 328 326 326 327 327 328 329 331 331 331 331 330 329 329 329 329 329 329 329 330 331 331 332 334 337 337
342 342 343 344 345 345 344 345 345 344 344 343 343 341 339 339 340 341 342 342 340 340 341 341 341 341 340 339 337 336 335 334 332 330 330 328 327 325 325 325 325 325 327 330 332 331 330 330 329 329 329 329 329 329 329 329 331 332 332 334 336 336
339 340 340 343 344 343 343 344 344 345 343 344 343 341 340 339 341 340 341 341 341 340 340 339 340 340 340 338 337 335 334 333 332 330 330 328 326 324 323 324 325 325 327 327 330 331 330 330 330 330 329 329 329 329 329 330 331 332 332 333 335 336
337 340 340 342 342 342 343 343 344 343 341 345 341 340 339 340 337 337 337 338 339 337 339 339 339 339 340 338 336 335 334 333 331 331 330 328 326 324 323 325 325 326 325 326 329 331 330 330 330 330 329 329 329 329 329 330 331 332 332 333 334 336
337 339 340 341 341 340 341 342 342 342 342 343 339 338 337 335 333 333 332 334 336 337 337 339 339 339 338 337 337 336 333 332 332 330 329 328 326 325 324 325 326 326 326 327 329 331 330 330 330 330 329 329 329 330 330 331 332 332 331 332 334 336
340 341 341 340 339 339 340 341 341 341 342 340 338 336 334 332 332 332 333 334 336 338 337 338 339 338 337 336 336 335 333 332 331 330 329 328 327 326 324 325 326 325 325 327 328 330 330 330 330 330 331 329 329 330 331 332 332 332 331 331 332 335
340 340 340 339 339 338 338 339 341 341 339 336 335 334 333 333 333 332 333 333 334 336 338 337 338 338 337 336 335 335 334 332 331 331 330 328 328 328 326 327 327 326 327 328 328 329 330 330 329 330 330 329 330 331 332 332 332 331 331 331 331 332
340 339 339 337 337 337 337 338 339 339 336 335 334 333 332 332 333 333 333 333 334 335 336 335 336 337 337 335 335 334 333 332 332 331 330 328 329 328 330 327 327 328 328 329 329 328 330 330 330 329 330 330 331 331 332 332 332 331 331 330 331 332
339 338 338 337 336 335 335 336 337 337 336 334 333 332 333 333 333 333 333 333 334 335 335 335 336 336 336 334 333 333 333 332 331 330 329 328 329 329 328 327 327 329 330 328 327 328 329 329 331 331 330 330 331 332 333 331 331 330 330 330 330 331
339 338 338 336 336 334 334 335 335 335 335 334 332 332 332 333 333 333 333 333 334 334 335 335 336 336 333 333 332 331 331 332 330 330 330 329 329 329 328 327 328 327 326 327 328 329 330 330 331 330 331 331 331 332 332 330 330 330 330 330 331 330
338 336 335 335 334 333 333 332 333 334 333 333 332 332 333 333 333 333 333 333 333 334 335 335 335 335 335 332 332 331 331 331 331 330 330 330 330 329 327 327 328 328 326 327 328 328 331 331 332 331 331 332 332 332 331 330 330 330 329 330 330 330
336 335 334 333 331 331 331 331 330 331 331 333 332 331 332 333 333 333 333 333 333 334 335 334 335 334 334 332 332 331 330 331 332 331 331 330 330 329 328 327 327 329 329 327 328 328 330 331 331 331 331 331 332 332 331 329 329 329 329 330 329 329
335 335 333 331 330 329 330 330 329 330 331 331 332 334 334 334 333 333 333 333 333 334 335 334 334 334 333 333 332 330 330 331 331 331 331 330 329 329 328 328 326 326 329 329 328 328 329 331 332 331 331 331 331 331 331 330 330 330 329 329 329 329
334 333 331 330 329 328 327 327 327 328 329 331 333 335 335 334 334 334 334 333 333 334 335 333 334 334 332 333 331 331 331 331 332 331 330 329 328 328 328 327 328 326 328 330 330 330 330 331 331 331 331 331 332 331 331 331 330 329 329 328 330 330
333 333 331 330 330 328 327 328 328 328 329 330 332 333 334 335 335 334 334 335 334 333 334 334 332 333 332 332 331 331 331 331 331 331 329 328 327 327 327 327 327 327 328 330 332 332 332 331 330 329 328 329 330 330 330 330 329 329 329 330 331 329
332 332 330 329 329 328 327 327 328 328 328 330 331 333 333 334 334 334 334 335 333 334 334 334 334 332 331 333 332 331 331 330 331 331 330 329 328 328 329 328 327 329 328 328 328 331 331 332 328 326 327 327 327 330 330 329 327 327 328 329 330 330
332 331 330 330 330 328 327 326 325 327 328 330 331 331 331 333 334 334 333 333 333 333 333 333 333 332 332 332 331 331 331 330 331 331 330 330 329 330 329 328 327 326 329 328 327 330 330 330 325 324 322 322 324 327 328 328 328 329 328 329 329 329
331 330 329 330 329 327 325 324 323 322 328 327 330 332 332 332 334 332 332 333 332 331 332 333 333 333 333 332 331 331 331 331 330 331 329 329 329 328 328 328 327 326 325 327 328 330 329 328 324 326 325 322 318 318 322 325 328 329 329 329 330 329
331 331 330 330 329 327 328 327 326 324 325 326 325 330 330 332 332 330 330 332 332 332 332 332 333 333 333 332 331 331 331 330 330 331 330 329 328 327 328 327 327 327 327 324 326 327 329 326 328 324 318 319 319 319 315 318 322 325 330 329 330 329
332 332 331 331 328 327 328 326 327 328 329 329 329 329 329 330 331 331 330 330 330 332 332 332 333 333 333 331 331 331 331 330 329 330 330 329 328 328 328 328 327 326 327 326 325 326 327 327 328 328 322 318 316 316 316 319 321 322 327 327 328 329
331 332 332 330 328 327 326 326 325 326 326 326 326 326 326 327 329 328 328 329 330 332 332 332 333 333 333 332 331 331 330 329 329 330 330 329 329 328 328 327 327 327 327 328 327 326 324 327 328 327 323 321 322 318 316 320 319 313 324 327 327 328
331 330 329 328 328 327 325 326 325 325 325 325 324 326 329 330 331 330 330 329 329 330 331 331 331 333 332 333 331 330 330 330 330 329 330 329 328 328 328 328 328 327 327 327 328 325 324 324 326 325 326 324 324 320 323 321 316 317 315 321 325 325
331 330 328 328 327 326 325 325 325 324 325 325 325 326 329 329 327 329 329 329 329 329 331 332 331 332 332 332 331 330 330 329 328 329 330 328 328 328 328 328 328 327 326 327 328 326 325 325 323 323 324 323 322 322 322 320 322 319 318 316 318 324
330 329 328 327 326 325 326 325 325 325 323 324 325 327 328 328 327 328 327 327 328 329 330 331 332 332 332 332 331 330 329 329 328 328 330 328 328 328 328 327 326 325 326 326 327 326 326 324 325 323 321 319 320 320 320 320 321 319 319 316 316 319
328 328 328 327 327 325 325 326 325 324 323 323 325 326 327 326 326 328 325 326 327 328 329 329 331 332 331 331 331 330 329 329 328 329 329 328 328 328 327 327 327 326 326 326 326 326 326 325 325 323 324 320 318 318 318 319 319 318 318 318 316 317
329 328 327 327 326 325 324 325 325 324 324 323 324 325 325 325 326 327 326 326 326 327 327 328 330 330 330 330 330 331 330 329 329 330 329 328 328 328 327 327 327 327 326 326 326 326 325 325 324 324 323 322 322 321 320 317 318 318 317 316 318 318
328 328 327 326 325 324 324 325 326 325 323 323 324 325 325 325 326 327 327 326 326 326 326 327 328 328 328 330 330 330 330 329 329 329 329 329 328 328 328 327 327 326 326 326 326 326 325 324 324 323 323 322 322 322 320 320 321 321 319 319 320 318
324 326 327 326 325 324 324 324 325 325 324 324 324 325 326 326 328 328 328 326 325 325 325 324 325 326 327 329 329 328 328 328 328 329 329 329 329 329 328 327 327 326 326 325 326 326 325 324 324 323 324 322 323 322 321 320 322 321 320 321 321 318
323 323 324 324 324 323 323 324 324 325 325 326 325 325 326 326 328 329 328 327 326 326 324 324 325 325 327 328 328 329 329 329 329 329 329 329 329 329 328 327 327 326 326 326 326 326 326 325 324 325 325 322 322 322 320 321 322 322 321 321 320 319
319 320 321 321 320 320 322 322 323 325 326 326 326 326 326 327 328 329 329 328 327 328 326 325 325 326 326 328 328 327 328 328 327 327 327 327 327 328 328 328 327 327 326 326 326 326 325 324 323 323 323 324 322 321 321 321 322 322 323 323 321 321
321 320 320 322 321 321 321 321 322 325 326 326 326 326 326 327 328 329 329 329 328 328 328 326 324 325 326 327 326 326 327 326 325 325 325 326 327 327 327 326 325 324 324 325 325 325 324 323 324 323 323 322 322 322 321 322 322 323 323 323 323 323
323 323 323 323 321 321 320 321 322 324 326 325 325 325 325 326 327 328 328 328 328 328 327 326 324 325 325 326 326 325 326 325 324 325 326 326 326 327 326 326 325 324 324 324 325 324 322 323 323 322 322 322 323 321 321 322 322 322 323 323 324 324
Wind_Speed
7 7 6 6 5 6 8 11 9 11 12 11 11 13 14 14 12 12 12 11 8 5 4 5 7 6 11 7 7 7 6 7 7 8 9 9 9 10 10 10 12 13 11 10 14 15 13 13 12 12 12 12 11 6 4 5 5 5 4 4 4 3
6 7 6 5 4 4 5 8 6 6 6 8 9 9 8 7 8 5 11 8 6 5 4 4 5 8 4 7 7 8 6 6 7 7 8 8 9 9 9 11 12 12 12 10 13 9 9 11 12 11 11 12 7 5 4 4 5 4 4 3 1 4
7 6 7 6 5 5 6 5 5 5 5 7 7 6 3 6 4 5 5 5 5 5 5 4 4 6 5 9 8 8 6 6 6 6 6 7 8 9 9 11 12 12 11 10 8 7 7 6 6 11 9 6 5 5 4 4 4 4 4 3 4 8
7 7 7 6 5 5 4 4 5 5 5 5 4 5 4 4 4 4 5 5 5 5 5 5 9 12 9 4 5 7 7 6 6 5 5 4 6 9 11 11 10 11 8 5 6 6 6 6 6 5 5 5 4 5 4 4 3 3 3 4 4 8
8 8 7 6 6 5 5 5 5 5 5 5 5 4 5 4 4 5 5 4 4 4 4 4 4 4 4 5 3 5 3 2 3 4 5 4 4 4 5 5 5 6 6 6 6 6 6 6 6 6 5 5 4 4 4 3 3 3 3 3 4 8
8 7 7 6 6 6 7 6 5 5 5 4 4 4 4 4 5 5 4 5 4 5 3 3 4 5 5 4 3 5 4 1 2 4 3 4 4 4 4 5 5 6 5 5 6 5 5 6 6 6 5 5 5 5 4 3 3 3 3 4 5 10
6 5 6 6 6 5 5 5 5 5 5 4 4 4 4 4 4 5 4 4 4 5 4 3 4 4 4 5 5 5 4 3 3 3 3 4 3 3 4 5 5 5 5 6 6 5 5 5 6 7 6 5 5 4 4 3 3 3 3 4 5 9
4 5 4 6 6 5 6 5 5 6 4 6 6 5 4 4 4 3 4 5 3 3 4 4 4 5 4 4 4 5 4 4 3 2 3 4 3 2 4 5 5 5 5 5 6 6 5 5 5 6 6 6 5 4 4 3 3 3 3 3 4 6
5 6 6 6 7 5 5 5 6 5 4 7 5 5 5 4 4 2 3 2 3 5 3 3 5 5 5 3 3 4 4 4 2 2 2 3 2 2 3 4 4 5 5 5 5 6 5 5 5 5 6 6 5 5 4 4 4 3 3 3 3 5
4 5 5 6 5 5 5 6 6 6 5 5 5 5 6 5 4 3 4 6 5 5 5 5 5 5 5 3 3 4 3 4 3 2 2 3 2 2 3 4 4 5 5 5 5 5 5 5 5 5 5 6 5 5 4 4 4 4 3 3 3 4
4 5 6 7 5 5 5 6 5 6 6 6 5 5 5 6 5 6 6 7 7 6 6 5 5 5 6 3 3 4 4 3 3 3 2 2 2 2 2 3 4 5 5 5 5 4 5 5 5 5 5 5 5 4 4 3 4 4 4 4 3 4
7 8 7 6 6 5 5 6 9 6 6 6 6 6 5 7 7 5 5 7 6 6 7 6 6 6 6 5 5 5 4 4 4 3 2 2 2 1 3 3 4 5 5 5 5 4 4 5 5 5 5 5 5 5 4 4 4 4 4 4 4 4
9 8 7 5 5 6 6 6 6 6 5 6 6 5 6 6 7 5 5 5 6 6 5 6 6 6 6 5 5 5 5 5 4 3 2 3 2 3 4 4 4 5 5 6 6 5 5 5 6 6 5 4 5 6 5 4 4 4 4 4 4 4
8 7 7 6 6 6 6 5 4 6 7 6 5 5 4 4 5 5 5 5 5 5 5 5 6 5 4 5 5 6 6 5 4 3 3 3 3 3 4 4 4 5 5 6 6 6 7 6 5 5 5 5 5 5 5 4 4 4 4 4 4 4
7 6 7 7 7 6 6 5 5 5 6 5 5 4 4 5 5 6 5 6 5 5 5 5 5 5 6 5 5 5 5 5 4 4 4 4 4 3 4 4 5 6 5 5 6 5 6 6 6 6 5 5 6 5 5 5 4 4 4 4 4 4
7 8 8 8 6 6 6 4 5 4 4 2 1 3 5 6 6 5 5 5 5 5 4 4 5 5 5 3 3 5 5 4 5 4 4 4 4 4 4 4 3 7 7 6 6 5 5 6 6 6 6 5 6 5 5 5 4 4 3 4 4 4
6 7 7 5 5 5 6 5 4 5 6 5 6 5 4 3 3 5 4 4 4 4 4 5 5 5 5 7 5 4 3 3 4 5 4 4 4 5 5 5 3 1 7 6 6 7 7 7 7 6 6 7 6 6 5 4 5 4 4 4 4 3
2 3 4 3 3 4 4 4 4 4 5 4 2 3 3 3 4 5 5 6 4 5 4 5 5 5 4 5 4 4 2 3 3 4 4 4 4 4 5 6 5 3 4 7 6 7 8 8 6 6 6 7 6 5 4 4 4 4 4 4 4 4
2 2 3 3 2 2 3 3 4 4 5 5 4 3 3 3 4 5 5 6 6 4 3 3 5 5 5 4 3 3 3 3 1 4 5 5 5 5 5 5 7 5 3 4 7 7 8 8 7 7 6 7 6 5 4 4 4 4 3 4 4 4
3 4 4 3 2 3 3 3 3 2 2 2 2 2 3 3 3 4 2 3 3 1 0 1 2 4 5 5 5 4 4 4 4 4 6 6 6 6 7 7 6 8 8 6 4 6 7 7 7 6 6 6 5 6 6 5 4 3 3 3 4 3
5 4 4 4 3 2 1 1 2 2 1 1 1 1 2 3 3 2 3 3 2 3 4 4 3 3 4 6 5 6 5 5 5 6 7 7 7 7 6 7 7 5 10 7 5 6 6 7 8 5 5 5 5 4 5 6 4 3 3 3 3 3
4 5 4 4 3 1 4 3 3 1 2 2 3 4 4 4 4 4 4 1 2 2 1 3 5 4 5 4 5 6 6 6 6 7 4 4 6 6 6 6 7 6 3 8 6 7 7 7 4 5 7 5 3 4 5 5 5 5 3 4 2 3
3 3 2 2 3 4 3 1 1 3 4 1 2 3 3 1 3 6 6 7 5 4 4 3 4 5 5 7 7 6 7 6 6 5 5 6 7 7 7 8 8 9 7 2 5 6 8 3 6 5 5 4 3 2 1 3 3 5 4 3 3 3
4 3 2 2 5 6 8 7 4 3 2 2 2 2 2 2 5 7 6 3 5 5 6 5 4 4 4 5 6 6 5 6 7 5 7 7 7 7 7 7 6 8 10 9 5 6 4 3 6 10 7 2 3 2 3 3 3 2 4 5 5 4
4 5 5 5 5 2 2 5 6 7 5 2 1 1 3 4 5 5 6 5 6 5 6 6 5 5 5 6 6 5 5 5 6 5 5 7 8 8 8 8 9 9 10 10 9 5 4 4 7 1 5 5 3 2 2 2 5 1 3 3 3 4
3 3 4 6 7 7 6 5 7 6 5 4 3 3 5 6 5 6 6 3 4 6 6 6 6 7 6 5 5 4 3 4 5 6 6 6 6 6 7 8 9 9 8 8 9 8 6 4 6 2 1 1 3 5 6 5 5 4 2 1 3 3
4 3 4 6 8 6 4 1 6 9 10 9 8 8 8 6 3 3 4 6 5 4 5 6 6 5 6 5 5 5 6 6 5 5 4 5 6 8 8 8 7 7 7 7 6 10 9 7 4 3 1 1 2 0 6 8 4 4 4 2 4 3
4 4 5 6 8 7 5 7 8 10 10 10 11 9 6 4 5 2 2 3 5 5 7 8 8 6 6 6 6 6 7 6 5 5 4 6 7 6 5 5 6 6 6 7 9 10 9 8 10 6 3 1 2 3 4 4 5 5 5 5 4 2
5 6 7 9 8 5 6 10 10 8 7 7 7 6 5 6 5 6 5 6 8 7 7 6 6 7 7 7 6 7 7 6 6 6 4 4 3 5 7 8 7 7 7 7 7 6 8 9 7 6 5 2 4 4 3 3 5 4 4 5 3 5
5 7 9 11 10 6 7 8 9 10 11 8 7 6 7 7 7 8 8 9 6 5 5 6 6 8 7 8 8 7 7 7 7 5 4 4 4 5 5 6 8 8 7 7 6 7 9 7 6 5 5 5 4 3 4 3 2 4 3 2 4 7
8 9 11 11 9 8 6 7 9 10 11 9 7 8 8 8 8 9 8 8 6 5 5 6 8 7 8 8 8 7 8 7 5 5 5 5 6 6 6 7 6 6 6 7 7 6 6 6 5 5 6 6 6 8 6 5 6 5 4 3 4 5
9 12 9 7 7 8 8 9 10 10 7 5 4 6 9 8 9 8 7 7 5 5 5 5 6 6 6 7 7 6 7 6 6 5 6 6 6 6 6 6 6 6 6 6 6 6 6 7 7 5 5 5 6 5 4 5 6 6 6 5 6 6
11 11 10 8 8 7 8 10 11 10 6 4 5 5 7 8 8 7 7 7 6 5 5 5 5 6 6 7 6 6 6 6 6 6 6 6 6 6 6 6 6 7 6 7 7 7 6 7 8 8 7 5 4 5 5 3 5 5 4 5 7 7
11 10 8 6 6 6 10 10 9 8 6 5 6 6 6 7 7 7 7 7 7 6 6 7 6 7 7 7 6 6 6 6 6 6 6 7 6 6 6 6 6 6 7 6 5 7 7 7 6 6 5 6 5 5 4 4 6 6 6 7 7 9
8 9 8 7 5 8 9 5 3 5 3 3 4 5 5 5 6 7 7 7 7 6 6 6 7 6 6 7 7 6 6 5 5 5 4 3 2 5 5 5 6 6 5 5 6 6 5 6 6 6 7 6 5 4 5 4 6 6 6 6 7 6
8 9 8 9 7 7 8 8 8 7 3 3 3 4 3 3 5 6 6 7 6 6 6 6 5 5 6 7 7 7 6 6 4 4 5 5 6 6 6 6 5 5 5 4 6 6 5 6 6 7 6 5 5 5 4 5 5 6 5 5 6 7
4 4 4 4 6 8 6 6 7 5 4 3 4 5 6 6 6 6 5 5 6 5 5 5 5 4 6 6 6 7 6 5 6 6 6 7 7 6 7 6 6 6 5 5 5 6 6 6 6 6 5 7 6 5 5 4 4 5 5 5 5 7
Wind_Direction
112 110 109 110 114 126 133 136 132 139 138 145 147 151 153 154 150 149 143 140 126 112 126 133 136 140 132 122 125 128 116 108 104 111 115 118 115 113 115 111 100 100 101 109 120 119 116 118 118 119 119 115 101 83 83 84 96 98 83 74 86 102
112 118 118 117 122 134 141 137 139 144 145 149 151 154 157 152 149 143 146 139 130 128 110 117 137 137 125 132 131 135 124 111 107 109 115 119 116 116 114 106 99 101 106 103 115 116 117 118 121 121 118 108 94 98 95 99 101 98 88 74 82 126
127 129 125 129 135 140 142 138 137 134 145 148 155 145 128 149 127 143 129 130 124 119 130 132 125 136 136 141 139 133 131 122 112 106 110 116 117 114 109 100 99 100 101 100 106 115 116 115 118 118 108 99 102 104 106 101 96 96 107 119 97 114
140 147 144 145 137 132 128 121 128 129 127 128 127 128 123 124 130 126 125 120 126 129 128 138 150 149 143 125 141 128 140 136 121 112 93 74 94 111 104 98 97 94 94 98 111 116 115 110 103 95 102 107 105 111 112 113 99 103 112 115 131 127
159 157 150 143 142 143 135 133 134 135 131 127 126 124 120 111 126 124 126 119 125 125 126 135 130 122 122 138 147 105 75 37 71 69 77 78 61 65 80 92 79 79 92 108 112 119 121 117 117 115 113 115 114 116 115 112 110 91 84 111 146 126
158 158 151 144 143 151 150 150 146 140 132 123 121 116 108 119 136 138 136 132 113 109 110 109 125 140 135 128 155 108 101 62 67 90 77 90 71 79 86 97 101 97 97 104 115 119 130 133 129 119 116 118 127 125 122 115 102 102 98 87 111 104
152 154 143 136 138 151 155 146 145 143 129 121 117 122 121 134 144 147 142 132 128 130 132 144 144 145 156 158 155 126 137 153 163 118 92 95 79 68 93 100 102 107 113 117 122 127 130 128 128 126 119 124 130 125 121 113 108 106 88 93 107 114
146 134 131 136 143 152 157 142 142 153 129 138 144 152 158 145 136 86 133 130 125 119 148 157 158 161 170 165 149 131 145 145 169 150 101 103 99 60 86 98 113 112 114 126 134 142 143 134 127 127 127 128 130 123 117 112 107 105 99 98 110 133
149 140 147 154 162 161 147 134 132 137 141 156 162 169 146 108 105 128 83 69 150 158 152 162 167 187 182 174 136 134 147 146 171 211 110 97 114 137 95 102 110 112 116 128 138 139 138 130 128 127 131 133 131 126 119 112 108 106 99 92 104 133
146 151 157 159 156 149 141 140 138 149 160 155 173 154 123 96 73 118 194 175 211 171 163 178 187 189 188 162 154 151 143 154 178 228 145 126 132 169 137 102 99 103 109 127 135 141 132 128 123 123 131 133 130 122 117 116 113 112 109 97 89 113
136 156 168 172 158 146 143 145 134 154 160 168 152 136 110 114 156 202 174 168 188 173 168 179 183 173 183 161 169 157 167 155 190 218 190 136 126 183 91 126 128 116 119 122 123 125 124 123 123 123 135 130 123 108 110 107 101 102 95 90 78 90
173 177 174 157 145 140 134 146 162 167 144 135 135 154 134 146 182 184 189 177 181 174 166 175 184 182 180 168 173 166 165 178 207 215 170 137 150 87 114 97 96 100 109 113 105 92 101 122 126 125 133 124 117 119 124 117 105 96 92 84 87 78
179 177 159 138 140 145 148 163 159 150 124 140 149 156 157 173 181 187 192 198 185 187 176 163 176 184 184 175 171 164 173 194 201 198 141 145 151 104 98 98 81 101 100 103 105 104 105 114 125 132 121 122 123 127 125 117 105 100 96 96 89 91
177 162 150 140 148 151 152 148 136 130 141 151 160 163 153 167 175 184 203 197 189 186 185 178 167 173 173 173 173 174 180 195 194 179 141 152 172 133 109 109 123 106 114 117 120 128 126 125 121 125 124 130 127 129 128 118 103 106 111 100 101 87
169 155 156 155 162 158 155 146 145 138 147 151 164 156 152 170 177 188 197 212 190 182 190 185 168 156 169 186 174 178 186 190 163 147 159 182 169 135 128 136 136 111 102 103 113 122 128 129 137 141 141 138 134 127 125 126 121 101 110 110 89 92
169 161 158 164 163 156 157 149 143 130 74 130 161 200 188 183 186 188 197 211 199 181 187 191 169 156 159 129 198 198 189 163 154 150 177 181 158 150 134 133 141 139 120 116 116 116 128 134 140 143 145 140 138 132 130 131 127 118 116 101 100 103
177 163 155 155 146 142 148 161 120 122 164 173 183 201 208 162 186 202 197 219 205 189 186 192 181 161 144 155 203 204 169 157 150 163 178 179 170 152 142 133 121 152 135 132 127 129 135 136 139 147 146 147 146 137 134 137 139 133 124 115 123 111
146 133 130 134 139 147 140 135 140 139 154 178 189 172 196 178 209 211 201 206 199 194 193 187 176 161 154 158 172 203 149 126 150 166 170 164 163 141 138 140 126 82 134 131 138 141 141 136 138 143 144 143 143 132 129 135 141 138 135 136 128 128
132 92 97 104 102 104 105 105 98 127 152 157 165 146 155 188 210 229 218 197 197 195 191 175 168 158 152 153 156 190 177 96 135 187 160 152 147 140 137 146 137 114 81 115 138 142 139 136 130 134 140 141 139 127 123 125 125 135 146 143 137 135
109 117 108 99 118 141 125 137 134 104 122 147 150 164 161 184 183 229 331 20 45 49 25 95 171 164 150 148 158 182 158 119 193 205 168 160 154 154 151 136 134 128 121 113 96 126 131 125 106 103 97 91 99 119 123 113 97 98 136 131 123 124
133 126 133 147 178 226 106 80 66 131 164 87 154 146 184 174 193 185 95 65 105 150 156 163 192 169 152 168 165 182 158 151 193 213 184 174 158 156 154 142 134 129 129 121 121 124 128 124 116 100 101 104 101 100 108 111 113 102 98 89 130 131
136 142 151 161 168 82 38 44 54 343 126 147 176 206 205 194 183 124 102 150 194 197 251 198 184 164 138 138 181 182 157 161 192 217 179 138 148 143 142 137 133 112 107 137 139 148 144 132 123 142 140 124 88 86 113 127 135 140 151 139 132 134
100 111 128 123 85 76 90 55 158 192 159 159 249 224 225 170 124 109 159 207 191 195 193 219 200 182 153 161 192 190 170 158 186 189 149 172 155 153 157 156 155 141 134 86 125 153 157 178 137 126 101 117 146 119 154 102 110 131 140 143 157 157
100 107 105 109 107 135 167 170 141 139 124 120 208 218 224 143 137 129 157 177 204 189 196 202 188 177 166 176 188 190 165 153 183 203 183 160 160 161 159 160 154 150 144 141 152 163 167 174 150 143 154 207 148 115 134 213 145 117 150 156 161 161
123 141 151 156 147 201 170 109 104 92 97 69 21 227 218 218 179 168 155 196 218 192 193 194 179 178 178 175 188 185 173 165 179 190 198 170 163 171 172 170 163 158 165 156 160 155 178 185 181 222 136 129 86 186 217 147 133 131 159 156 165 157
114 143 160 162 179 191 196 147 123 135 153 168 209 203 227 226 200 182 195 186 218 211 205 195 190 184 182 172 172 177 164 172 188 190 200 180 154 153 172 170 177 169 167 172 156 160 163 209 200 119 51 13 157 176 169 168 153 192 90 142 163 165
156 154 161 185 199 201 175 95 169 163 176 186 191 202 196 190 178 160 182 192 201 194 201 204 201 187 178 168 162 168 181 186 195 192 196 167 165 173 174 179 162 173 175 154 159 166 169 177 180 251 147 51 70 231 147 142 171 116 158 170 162 140
176 174 204 209 209 194 165 179 211 201 182 182 193 207 186 139 96 132 208 208 220 197 202 200 194 191 176 175 172 176 177 175 176 198 188 184 181 170 161 164 170 167 150 167 170 170 170 174 181 186 164 191 64 100 89 69 140 157 150 160 158 112
183 188 212 223 221 189 168 197 208 225 224 200 185 189 130 133 155 182 184 212 210 204 199 200 200 196 188 181 180 184 182 184 188 182 170 182 195 169 171 165 162 161 170 171 176 167 165 180 187 176 142 79 87 100 84 63 121 91 138 161 171 177
196 206 218 222 225 198 190 206 209 213 223 211 180 166 147 153 168 180 187 216 206 190 187 188 187 192 184 188 182 177 181 194 195 166 166 183 173 178 178 177 176 176 172 163 163 166 179 176 182 149 158 144 132 117 78 80 86 107 67 112 166 181
214 218 221 222 221 212 202 217 223 224 225 221 184 159 150 156 168 198 188 195 195 187 186 180 191 186 180 185 187 177 182 194 184 173 164 171 192 185 183 179 177 171 169 166 172 164 155 162 161 157 160 169 162 167 165 166 180 176 142 142 131 158
232 231 232 230 228 221 211 220 226 228 229 242 205 179 165 155 171 185 182 181 168 163 183 189 191 173 163 179 180 176 183 180 178 182 178 177 189 186 175 170 169 175 178 178 164 159 155 162 171 168 178 178 176 174 162 160 173 170 166 155 147 154
234 241 241 233 229 227 227 227 228 228 214 201 223 209 170 161 165 178 176 173 161 170 180 187 194 174 171 173 167 169 176 183 187 189 181 175 184 175 168 170 173 177 176 179 178 167 167 178 173 180 190 189 169 174 182 164 143 143 105 123 137 140
239 245 250 255 246 229 237 231 231 240 212 194 207 216 201 170 168 172 169 175 167 172 175 189 189 190 173 159 163 184 185 192 191 180 179 181 174 171 165 168 173 175 184 189 172 176 182 176 179 187 156 161 182 176 172 165 148 138 145 137 150 151
276 280 286 287 338 306 289 307 278 252 214 164 202 220 216 187 170 167 169 173 170 170 173 186 195 179 162 161 160 167 180 187 184 180 144 111 162 166 162 163 176 182 174 174 173 176 176 164 172 171 173 180 171 163 168 165 159 165 161 163 153 157
287 298 307 319 339 333 321 330 323 316 285 173 195 234 238 206 184 172 170 173 171 168 172 174 191 169 174 161 163 168 172 178 163 118 148 171 187 168 160 155 150 151 155 149 159 174 173 169 179 178 173 155 151 178 161 166 170 164 167 152 153 157
314 302 302 298 296 295 295 296 294 314 299 230 210 208 212 198 187 181 174 175 169 167 154 160 170 189 173 169 165 164 166 163 151 164 168 173 194 164 152 147 152 148 151 156 158 171 163 174 176 166 160 171 178 163 165 156 152 152 150 151 163 167